This demonstration page uses our WeatherBlox Daily Observations layout. Learn more.

Left ArrowRight Arrow

Hourly Observations for June 18, 2015

Temp ( °F °C ) Dew Point ( °F °C ) Humidity (%) Winds ( mph kmh ) Pressure ( in mb ) Visibility ( mi km ) Precip ( " mm )
12:59 am 00:59 Mostly Cloudy 75 23.9 69 20.6 82 82 SSE 3 6 30.08 1019 10 16 0.00 0.00
1:59 am 01:59 Mostly Clear 75 23.9 69 20.6 82 82 SSE 8 13 30.05 1018 9 14 0.00 0.00
2:59 am 02:59 Mostly Cloudy 75 23.9 70 21.1 84 84 S 8 13 30.05 1018 9 14 0.00 0.00
3:16 am 03:16 Cloudy 79 26.1 70 21.1 74 74 S 9 15 30.03 1017 9 14 0.00 0.00
3:29 am 03:29 Cloudy with Thunderstorms 79 26.1 70 21.1 74 74 SSW 7 11 30.06 1018 9 14 0.00 0.00
3:59 am 03:59 Cloudy with Thunderstorms 79 26.1 70 21.1 74 74 SW 9 15 30.08 1019 8 13 0.00 0.00
4:09 am 04:09 Cloudy 79 26.1 70 21.1 74 74 SSW 8 13 30.06 1018 7 11 0.00 0.00
4:35 am 04:35 Mostly Cloudy with Light Rain 79 26.1 70 21.1 74 74 SW 8 13 30.06 1018 6 10 0.00 0.00
4:59 am 04:59 Mostly Cloudy with Light Rain 77 25 70 21.1 79 79 SSW 9 15 30.06 1018 7 11 0.01 0.25
5:59 am 05:59 Cloudy with Light Rain 77 25 72 22.2 85 85 S 5 7 30.02 1017 9 14 0.01 0.25
6:59 am 06:59 Cloudy with Light Rain 74 23.3 72 22.2 94 94 SSW 7 11 30.04 1017 10 16 0.01 0.25
7:59 am 07:59 Mostly Cloudy 75 23.9 72 22.2 90 90 VRB 5 7 30.05 1018 9 14 0.00 0.03
8:59 am 08:59 Mostly Cloudy 77 25 72 22.2 85 85 WSW 9 15 30.06 1018 10 16 0.00 0.00
9:59 am 09:59 Mostly Cloudy 79 26.1 72 22.2 79 79 W 10 17 30.05 1018 10 16 0.00 0.00
10:59 am 10:59 Mostly Cloudy 82 27.8 72 22.2 72 72 WSW 10 17 30.05 1018 10 16 0.00 0.00
11:59 am 11:59 Mostly Cloudy 84 28.9 73 22.8 70 70 W 7 11 30.05 1018 9 14 0.00 0.00
12:59 pm 12:59 Mostly Cloudy 87 30.6 73 22.8 63 63 W 8 13 30.04 1017 9 14 0.00 0.00
1:59 pm 13:59 Mostly Cloudy 89 31.7 73 22.8 59 59 W 7 11 30.03 1017 10 16 0.00 0.00
2:59 pm 14:59 Mostly Cloudy 90 32.2 72 22.2 56 56 WNW 10 17 30.01 1016 9 14 0.00 0.00
3:59 pm 15:59 Mostly Cloudy 92 33.3 72 22.2 52 52 W 6 9 29.99 1016 10 16 0.00 0.00
4:59 pm 16:59 Mostly Cloudy 91 32.8 72 22.2 54 54 WSW 9 15 29.96 1015 10 16 0.00 0.00
5:59 pm 17:59 Mostly Cloudy 90 32.2 72 22.2 56 56 SSW 5 7 29.95 1014 9 14 0.00 0.00
6:59 pm 18:59 Sunny 89 31.7 72 22.2 57 57 SSW 7 11 29.96 1014 9 14 0.00 0.00
7:59 pm 19:59 Mostly Cloudy 86 30 72 22.2 63 63 SSW 5 7 29.97 1015 8 13 0.00 0.00
8:59 pm 20:59 Mostly Cloudy 84 28.9 73 22.8 70 70 S 5 7 29.95 1014 9 14 0.00 0.00
9:59 pm 21:59 Mostly Cloudy 83 28.3 74 23.3 74 74 S 5 7 29.96 1015 10 16 0.00 0.00
10:59 pm 22:59 Mostly Cloudy 84 28.9 70 21.1 63 63 W 6 9 30.00 1016 9 14 0.00 0.00
11:59 pm 23:59 Mostly Cloudy 83 28.3 68 20 61 61 WSW 7 11 30.01 1016 10 16 0.00 0.00

Powered by AerisWeather